Year,Month,Day,Hour,Minute,Value (Times are PST for temperature in C)
2013,10,24,00,00,6.00
2013,10,24,00,01,6.00
2013,10,24,00,02,6.10
2013,10,24,00,03,6.10
2013,10,24,00,04,6.10
2013,10,24,00,05,6.10
2013,10,24,00,06,6.10
2013,10,24,00,07,6.10
2013,10,24,00,08,6.10
2013,10,24,00,09,6.10
2013,10,24,00,10,6.10
2013,10,24,00,11,6.10
2013,10,24,00,12,6.10
2013,10,24,00,13,6.10
2013,10,24,00,14,6.00
2013,10,24,00,15,6.00
2013,10,24,00,16,6.00
2013,10,24,00,17,6.00
2013,10,24,00,18,6.00
2013,10,24,00,19,6.00
2013,10,24,00,20,6.00
2013,10,24,00,21,5.90
2013,10,24,00,22,5.90
2013,10,24,00,23,5.90
2013,10,24,00,24,5.90
2013,10,24,00,25,5.90
2013,10,24,00,26,5.90
2013,10,24,00,27,5.90
2013,10,24,00,28,5.90
2013,10,24,00,29,5.90
2013,10,24,00,30,5.90
2013,10,24,00,31,5.90
2013,10,24,00,32,5.90
2013,10,24,00,33,5.90
2013,10,24,00,34,6.00
2013,10,24,00,35,6.00
2013,10,24,00,36,6.10
2013,10,24,00,37,6.10
2013,10,24,00,38,6.20
2013,10,24,00,39,6.20
2013,10,24,00,40,6.30
2013,10,24,00,41,6.30
2013,10,24,00,42,6.40
2013,10,24,00,43,6.40
2013,10,24,00,44,6.50
2013,10,24,00,45,6.50
2013,10,24,00,46,6.50
2013,10,24,00,47,6.50
2013,10,24,00,48,6.40
2013,10,24,00,49,6.40
2013,10,24,00,50,6.30
2013,10,24,00,51,6.30
2013,10,24,00,52,6.20
2013,10,24,00,53,6.20
2013,10,24,00,54,6.10
2013,10,24,00,55,6.00
2013,10,24,00,56,5.90
2013,10,24,00,57,5.90
2013,10,24,00,58,5.90
2013,10,24,00,59,5.80
2013,10,24,01,00,5.80
2013,10,24,01,01,5.90
2013,10,24,01,02,5.90
2013,10,24,01,03,5.90
2013,10,24,01,04,5.90
2013,10,24,01,05,5.90
2013,10,24,01,06,6.00
2013,10,24,01,07,6.00
2013,10,24,01,08,6.10
2013,10,24,01,09,6.10
2013,10,24,01,10,6.20
2013,10,24,01,11,6.20
2013,10,24,01,12,6.30
2013,10,24,01,13,6.30
2013,10,24,01,14,6.30
2013,10,24,01,15,6.30
2013,10,24,01,16,6.40
2013,10,24,01,17,6.40
2013,10,24,01,18,6.50
2013,10,24,01,19,6.50
2013,10,24,01,20,6.60
2013,10,24,01,21,6.60
2013,10,24,01,22,6.60
2013,10,24,01,23,6.70
2013,10,24,01,24,6.70
2013,10,24,01,25,6.70
2013,10,24,01,26,6.70
2013,10,24,01,27,6.70
2013,10,24,01,28,6.70
2013,10,24,01,29,6.60
2013,10,24,01,30,6.60
2013,10,24,01,31,6.50
2013,10,24,01,32,6.40
2013,10,24,01,33,6.30
2013,10,24,01,34,6.30
2013,10,24,01,35,6.20
2013,10,24,01,36,6.20
2013,10,24,01,37,6.10
2013,10,24,01,38,6.10
2013,10,24,01,39,6.00
2013,10,24,01,40,6.00
2013,10,24,01,41,6.00
2013,10,24,01,42,6.00
2013,10,24,01,43,6.00
2013,10,24,01,44,6.00
2013,10,24,01,45,6.10
2013,10,24,01,46,6.10
2013,10,24,01,47,6.10
2013,10,24,01,48,6.10
2013,10,24,01,49,6.10
2013,10,24,01,50,6.10
2013,10,24,01,51,6.00
2013,10,24,01,52,6.00
2013,10,24,01,53,5.90
2013,10,24,01,54,5.90
2013,10,24,01,55,5.90
2013,10,24,01,56,5.90
2013,10,24,01,57,5.90
2013,10,24,01,58,5.80
2013,10,24,01,59,5.80
2013,10,24,02,00,5.80
2013,10,24,02,01,5.80
2013,10,24,02,02,5.80
2013,10,24,02,03,5.80
2013,10,24,02,04,5.80
2013,10,24,02,05,5.80
2013,10,24,02,06,5.80
2013,10,24,02,07,5.80
2013,10,24,02,08,5.70
2013,10,24,02,09,5.70
2013,10,24,02,10,5.60
2013,10,24,02,11,5.60
2013,10,24,02,12,5.60
2013,10,24,02,13,5.50
2013,10,24,02,14,5.50
2013,10,24,02,15,5.40
2013,10,24,02,16,5.40
2013,10,24,02,17,5.40
2013,10,24,02,18,5.40
2013,10,24,02,19,5.40
2013,10,24,02,20,5.40
2013,10,24,02,21,5.40
2013,10,24,02,22,5.40
2013,10,24,02,23,5.40
2013,10,24,02,24,5.50
2013,10,24,02,25,5.50
2013,10,24,02,26,5.50
2013,10,24,02,27,5.50
2013,10,24,02,28,5.50
2013,10,24,02,29,5.50
2013,10,24,02,30,5.50
2013,10,24,02,31,5.50
2013,10,24,02,32,5.50
2013,10,24,02,33,5.50
2013,10,24,02,34,5.50
2013,10,24,02,35,5.50
2013,10,24,02,36,5.50
2013,10,24,02,37,5.50
2013,10,24,02,38,5.50
2013,10,24,02,39,5.50
2013,10,24,02,40,5.50
2013,10,24,02,41,5.50
2013,10,24,02,42,5.50
2013,10,24,02,43,5.50
2013,10,24,02,44,5.50
2013,10,24,02,45,5.50
2013,10,24,02,46,5.50
2013,10,24,02,47,5.60
2013,10,24,02,48,5.60
2013,10,24,02,49,5.60
2013,10,24,02,50,5.50
2013,10,24,02,51,5.50
2013,10,24,02,52,5.50
2013,10,24,02,53,5.50
2013,10,24,02,54,5.40
2013,10,24,02,55,5.50
2013,10,24,02,56,5.50
2013,10,24,02,57,5.40
2013,10,24,02,58,5.40
2013,10,24,02,59,5.40
2013,10,24,03,00,5.40
2013,10,24,03,01,5.40
2013,10,24,03,02,5.40
2013,10,24,03,03,5.40
2013,10,24,03,04,5.30
2013,10,24,03,05,5.30
2013,10,24,03,06,5.30
2013,10,24,03,07,5.30
2013,10,24,03,08,5.20
2013,10,24,03,09,5.20
2013,10,24,03,10,5.20
2013,10,24,03,11,5.20
2013,10,24,03,12,5.20
2013,10,24,03,13,5.20
2013,10,24,03,14,5.20
2013,10,24,03,15,5.20
2013,10,24,03,16,5.30
2013,10,24,03,17,5.50
2013,10,24,03,18,5.70
2013,10,24,03,19,5.80
2013,10,24,03,20,5.80
2013,10,24,03,21,5.90
2013,10,24,03,22,5.90
2013,10,24,03,23,5.90
2013,10,24,03,24,5.80
2013,10,24,03,25,5.80
2013,10,24,03,26,5.80
2013,10,24,03,27,5.80
2013,10,24,03,28,5.80
2013,10,24,03,29,5.70
2013,10,24,03,30,5.70
2013,10,24,03,31,5.80
2013,10,24,03,32,5.80
2013,10,24,03,33,5.80
2013,10,24,03,34,5.90
2013,10,24,03,35,5.90
2013,10,24,03,36,5.90
2013,10,24,03,37,6.00
2013,10,24,03,38,6.10
2013,10,24,03,39,6.20
2013,10,24,03,40,6.20
2013,10,24,03,41,6.20
2013,10,24,03,42,6.20
2013,10,24,03,43,6.20
2013,10,24,03,44,6.20
2013,10,24,03,45,6.20
2013,10,24,03,46,6.20
2013,10,24,03,47,6.20
2013,10,24,03,48,6.20
2013,10,24,03,49,6.20
2013,10,24,03,50,6.20
2013,10,24,03,51,6.20
2013,10,24,03,52,6.20
2013,10,24,03,53,6.20
2013,10,24,03,54,6.20
2013,10,24,03,55,6.20
2013,10,24,03,56,6.20
2013,10,24,03,57,6.20
2013,10,24,03,58,6.20
2013,10,24,03,59,6.20
2013,10,24,04,00,6.20
2013,10,24,04,01,6.20
2013,10,24,04,02,6.20
2013,10,24,04,03,6.20
2013,10,24,04,04,6.20
2013,10,24,04,05,6.20
2013,10,24,04,06,6.10
2013,10,24,04,07,6.00
2013,10,24,04,08,6.00
2013,10,24,04,09,5.90
2013,10,24,04,10,5.80
2013,10,24,04,11,5.80
2013,10,24,04,12,5.80
2013,10,24,04,13,5.80
2013,10,24,04,14,5.70
2013,10,24,04,15,5.70
2013,10,24,04,16,5.70
2013,10,24,04,17,5.70
2013,10,24,04,18,5.70
2013,10,24,04,19,5.60
2013,10,24,04,20,5.60
2013,10,24,04,21,5.60
2013,10,24,04,22,5.60
2013,10,24,04,23,5.60
2013,10,24,04,24,5.60
2013,10,24,04,25,5.60
2013,10,24,04,26,5.60
2013,10,24,04,27,5.60
2013,10,24,04,28,5.60
2013,10,24,04,29,5.60
2013,10,24,04,30,5.60
2013,10,24,04,31,5.70
2013,10,24,04,32,5.70
2013,10,24,04,33,5.80
2013,10,24,04,34,5.80
2013,10,24,04,35,5.80
2013,10,24,04,36,5.80
2013,10,24,04,37,5.80
2013,10,24,04,38,5.80
2013,10,24,04,39,5.80
2013,10,24,04,40,5.80
2013,10,24,04,41,5.90
2013,10,24,04,42,5.90
2013,10,24,04,43,6.00
2013,10,24,04,44,6.00
2013,10,24,04,45,5.90
2013,10,24,04,46,5.90
2013,10,24,04,47,5.90
2013,10,24,04,48,5.90
2013,10,24,04,49,5.80
2013,10,24,04,50,5.80
2013,10,24,04,51,5.80
2013,10,24,04,52,5.80
2013,10,24,04,53,5.80
2013,10,24,04,54,5.80
2013,10,24,04,55,5.70
2013,10,24,04,56,5.70
2013,10,24,04,57,5.70
2013,10,24,04,58,5.70
2013,10,24,04,59,5.60
2013,10,24,05,00,5.60
2013,10,24,05,01,5.60
2013,10,24,05,02,5.60
2013,10,24,05,03,5.50
2013,10,24,05,04,5.50
2013,10,24,05,05,5.50
2013,10,24,05,06,5.50
2013,10,24,05,07,5.50
2013,10,24,05,08,5.50
2013,10,24,05,09,5.50
2013,10,24,05,10,5.50
2013,10,24,05,11,5.50
2013,10,24,05,12,5.60
2013,10,24,05,13,5.60
2013,10,24,05,14,5.70
2013,10,24,05,15,5.60
2013,10,24,05,16,5.60
2013,10,24,05,17,5.60
2013,10,24,05,18,5.60
2013,10,24,05,19,5.60
2013,10,24,05,20,5.70
2013,10,24,05,21,5.70
2013,10,24,05,22,5.70
2013,10,24,05,23,5.70
2013,10,24,05,24,5.70
2013,10,24,05,25,5.70
2013,10,24,05,26,5.70
2013,10,24,05,27,5.70
2013,10,24,05,28,5.60
2013,10,24,05,29,5.60
2013,10,24,05,30,5.50
2013,10,24,05,31,5.50
2013,10,24,05,32,5.40
2013,10,24,05,33,5.40
2013,10,24,05,34,5.40
2013,10,24,05,35,5.30
2013,10,24,05,36,5.30
2013,10,24,05,37,5.30
2013,10,24,05,38,5.30
2013,10,24,05,39,5.30
2013,10,24,05,40,5.30
2013,10,24,05,41,5.30
2013,10,24,05,42,5.40
2013,10,24,05,43,5.40
2013,10,24,05,44,5.50
2013,10,24,05,45,5.50
2013,10,24,05,46,5.60
2013,10,24,05,47,5.60
2013,10,24,05,48,5.60
2013,10,24,05,49,5.60
2013,10,24,05,50,5.60
2013,10,24,05,51,5.60
2013,10,24,05,52,5.60
2013,10,24,05,53,5.60
2013,10,24,05,54,5.60
2013,10,24,05,55,5.50
2013,10,24,05,56,5.50
2013,10,24,05,57,5.40
2013,10,24,05,58,5.40
2013,10,24,05,59,5.30
2013,10,24,06,00,5.30
2013,10,24,06,01,5.20
2013,10,24,06,02,5.20
2013,10,24,06,03,5.20
2013,10,24,06,04,5.10
2013,10,24,06,05,5.10
2013,10,24,06,06,5.10
2013,10,24,06,07,5.10
2013,10,24,06,08,5.10
2013,10,24,06,09,5.10
2013,10,24,06,10,5.10
2013,10,24,06,11,5.00
2013,10,24,06,12,5.00
2013,10,24,06,13,5.00
2013,10,24,06,14,5.00
2013,10,24,06,15,5.10
2013,10,24,06,16,5.10
2013,10,24,06,17,5.20
2013,10,24,06,18,5.20
2013,10,24,06,19,5.20
2013,10,24,06,20,5.30
2013,10,24,06,21,5.30
2013,10,24,06,22,5.30
2013,10,24,06,23,5.30
2013,10,24,06,24,5.30
2013,10,24,06,25,5.20
2013,10,24,06,26,5.20
2013,10,24,06,27,5.20
2013,10,24,06,28,5.10
2013,10,24,06,29,5.00
2013,10,24,06,30,5.00
2013,10,24,06,31,4.90
2013,10,24,06,32,4.90
2013,10,24,06,33,4.80
2013,10,24,06,34,4.80
2013,10,24,06,35,4.80
2013,10,24,06,36,4.80
2013,10,24,06,37,4.80
2013,10,24,06,38,4.90
2013,10,24,06,39,4.90
2013,10,24,06,40,4.90
2013,10,24,06,41,4.90
2013,10,24,06,42,5.00
2013,10,24,06,43,5.00
2013,10,24,06,44,5.00
2013,10,24,06,45,5.00
2013,10,24,06,46,5.00
2013,10,24,06,47,5.00
2013,10,24,06,48,5.00
2013,10,24,06,49,5.00
2013,10,24,06,50,5.00
2013,10,24,06,51,4.90
2013,10,24,06,52,4.90
2013,10,24,06,53,4.90
2013,10,24,06,54,4.90
2013,10,24,06,55,5.00
2013,10,24,06,56,5.00
2013,10,24,06,57,5.00
2013,10,24,06,58,5.00
2013,10,24,06,59,5.00
2013,10,24,07,00,5.00
2013,10,24,07,01,4.90
2013,10,24,07,02,4.90
2013,10,24,07,03,4.90
2013,10,24,07,04,4.90
2013,10,24,07,05,4.90
2013,10,24,07,06,4.80
2013,10,24,07,07,4.80
2013,10,24,07,08,4.80
2013,10,24,07,09,4.80
2013,10,24,07,10,4.80
2013,10,24,07,11,4.80
2013,10,24,07,12,4.80
2013,10,24,07,13,4.80
2013,10,24,07,14,4.80
2013,10,24,07,15,4.80
2013,10,24,07,16,4.80
2013,10,24,07,17,4.80
2013,10,24,07,18,4.80
2013,10,24,07,19,4.80
2013,10,24,07,20,4.90
2013,10,24,07,21,4.90
2013,10,24,07,22,4.90
2013,10,24,07,23,4.90
2013,10,24,07,24,4.80
2013,10,24,07,25,4.80
2013,10,24,07,26,4.80
2013,10,24,07,27,4.80
2013,10,24,07,28,4.90
2013,10,24,07,29,4.90
2013,10,24,07,30,4.90
2013,10,24,07,31,4.90
2013,10,24,07,32,4.90
2013,10,24,07,33,4.90
2013,10,24,07,34,4.90
2013,10,24,07,35,4.90
2013,10,24,07,36,4.90
2013,10,24,07,37,4.90
2013,10,24,07,38,4.90
2013,10,24,07,39,4.90
2013,10,24,07,40,5.00
2013,10,24,07,41,5.00
2013,10,24,07,42,5.00
2013,10,24,07,43,5.00
2013,10,24,07,44,5.00
2013,10,24,07,45,5.00
2013,10,24,07,46,5.00
2013,10,24,07,47,5.00
2013,10,24,07,48,5.00
2013,10,24,07,49,5.10
2013,10,24,07,50,5.10
2013,10,24,07,51,5.10
2013,10,24,07,52,5.10
2013,10,24,07,53,5.10
2013,10,24,07,54,5.10
2013,10,24,07,55,5.10
2013,10,24,07,56,5.10
2013,10,24,07,57,5.10
2013,10,24,07,58,5.10
2013,10,24,07,59,5.10
2013,10,24,08,00,5.10
2013,10,24,08,01,5.10
2013,10,24,08,02,5.00
2013,10,24,08,03,5.00
2013,10,24,08,04,5.00
2013,10,24,08,05,4.90
2013,10,24,08,06,4.90
2013,10,24,08,07,4.90
2013,10,24,08,08,4.90
2013,10,24,08,09,4.90
2013,10,24,08,10,4.90
2013,10,24,08,11,4.90
2013,10,24,08,12,4.80
2013,10,24,08,13,4.80
2013,10,24,08,14,4.90
2013,10,24,08,15,4.90
2013,10,24,08,16,4.90
2013,10,24,08,17,5.00
2013,10,24,08,18,5.00
2013,10,24,08,19,5.00
2013,10,24,08,20,5.00
2013,10,24,08,21,5.00
2013,10,24,08,22,5.00
2013,10,24,08,23,5.00
2013,10,24,08,24,4.90
2013,10,24,08,25,4.90
2013,10,24,08,26,5.00
2013,10,24,08,27,5.00
2013,10,24,08,28,5.00
2013,10,24,08,29,5.10
2013,10,24,08,30,5.10
2013,10,24,08,31,5.20
2013,10,24,08,32,5.20
2013,10,24,08,33,5.20
2013,10,24,08,34,5.20
2013,10,24,08,35,5.20
2013,10,24,08,36,5.20
2013,10,24,08,37,5.20
2013,10,24,08,38,5.20
2013,10,24,08,39,5.30
2013,10,24,08,40,5.30
2013,10,24,08,41,5.30
2013,10,24,08,42,5.30
2013,10,24,08,43,5.30
2013,10,24,08,44,5.30
2013,10,24,08,45,5.40
2013,10,24,08,46,5.40
2013,10,24,08,47,5.40
2013,10,24,08,48,5.40
2013,10,24,08,49,5.50
2013,10,24,08,50,5.50
2013,10,24,08,51,5.50
2013,10,24,08,52,5.60
2013,10,24,08,53,5.60
2013,10,24,08,54,5.60
2013,10,24,08,55,5.60
2013,10,24,08,56,5.70
2013,10,24,08,57,5.70
2013,10,24,08,58,5.80
2013,10,24,08,59,5.80
2013,10,24,09,00,5.90
2013,10,24,09,01,5.90
2013,10,24,09,02,5.90
2013,10,24,09,03,6.00
2013,10,24,09,04,6.00
2013,10,24,09,05,6.00
2013,10,24,09,06,6.10
2013,10,24,09,07,6.10
2013,10,24,09,08,6.20
2013,10,24,09,09,6.20
2013,10,24,09,10,6.30
2013,10,24,09,11,6.30
2013,10,24,09,12,6.30
2013,10,24,09,13,6.40
2013,10,24,09,14,6.40
2013,10,24,09,15,6.50
2013,10,24,09,16,6.50
2013,10,24,09,17,6.60
2013,10,24,09,18,6.60
2013,10,24,09,19,6.70
2013,10,24,09,20,6.70
2013,10,24,09,21,6.80
2013,10,24,09,22,6.90
2013,10,24,09,23,6.90
2013,10,24,09,24,7.00
2013,10,24,09,25,7.10
2013,10,24,09,26,7.10
2013,10,24,09,27,7.20
2013,10,24,09,28,7.30
2013,10,24,09,29,7.40
2013,10,24,09,30,7.50
2013,10,24,09,31,7.60
2013,10,24,09,32,7.70
2013,10,24,09,33,7.70
2013,10,24,09,34,7.80
2013,10,24,09,35,7.80
2013,10,24,09,36,7.80
2013,10,24,09,37,7.80
2013,10,24,09,38,7.90
2013,10,24,09,39,7.90
2013,10,24,09,40,7.90
2013,10,24,09,41,7.90
2013,10,24,09,42,8.00
2013,10,24,09,43,8.00
2013,10,24,09,44,8.10
2013,10,24,09,45,8.20
2013,10,24,09,46,8.20
2013,10,24,09,47,8.30
2013,10,24,09,48,8.40
2013,10,24,09,49,8.50
2013,10,24,09,50,8.60
2013,10,24,09,51,8.70
2013,10,24,09,52,8.70
2013,10,24,09,53,8.80
2013,10,24,09,54,8.90
2013,10,24,09,55,8.90
2013,10,24,09,56,9.00
2013,10,24,09,57,9.10
2013,10,24,09,58,9.10
2013,10,24,09,59,9.10
2013,10,24,10,00,9.10
2013,10,24,10,01,9.10
2013,10,24,10,02,9.20
2013,10,24,10,03,9.20
2013,10,24,10,04,9.20
2013,10,24,10,05,9.20
2013,10,24,10,06,9.20
2013,10,24,10,07,9.20
2013,10,24,10,08,9.20
2013,10,24,10,09,9.20
2013,10,24,10,10,9.30
2013,10,24,10,11,9.30
2013,10,24,10,12,9.30
2013,10,24,10,13,9.40
2013,10,24,10,14,9.40
2013,10,24,10,15,9.40
2013,10,24,10,16,9.40
2013,10,24,10,17,9.50
2013,10,24,10,18,9.50
2013,10,24,10,19,9.50
2013,10,24,10,20,9.60
2013,10,24,10,21,9.60
2013,10,24,10,22,9.60
2013,10,24,10,23,9.60
2013,10,24,10,24,9.70
2013,10,24,10,25,9.70
2013,10,24,10,26,9.70
2013,10,24,10,27,9.70
2013,10,24,10,28,9.70
2013,10,24,10,29,9.70
2013,10,24,10,30,9.80
2013,10,24,10,31,9.80
2013,10,24,10,32,9.90
2013,10,24,10,33,9.90
2013,10,24,10,34,10.00
2013,10,24,10,35,10.00
2013,10,24,10,36,10.00
2013,10,24,10,37,10.10
2013,10,24,10,38,10.10
2013,10,24,10,39,10.10
2013,10,24,10,40,10.10
2013,10,24,10,41,10.10
2013,10,24,10,42,10.20
2013,10,24,10,43,10.20
2013,10,24,10,44,10.20
2013,10,24,10,45,10.30
2013,10,24,10,46,10.30
2013,10,24,10,47,10.40
2013,10,24,10,48,10.40
2013,10,24,10,49,10.40
2013,10,24,10,50,10.50
2013,10,24,10,51,10.50
2013,10,24,10,52,10.60
2013,10,24,10,53,10.60
2013,10,24,10,54,10.60
2013,10,24,10,55,10.60
2013,10,24,10,56,10.60
2013,10,24,10,57,10.60
2013,10,24,10,58,10.70
2013,10,24,10,59,10.70
2013,10,24,11,00,10.70
2013,10,24,11,01,10.70
2013,10,24,11,02,10.70
2013,10,24,11,03,10.80
2013,10,24,11,04,10.80
2013,10,24,11,05,10.90
2013,10,24,11,06,10.90
2013,10,24,11,07,11.00
2013,10,24,11,08,11.00
2013,10,24,11,09,11.10
2013,10,24,11,10,11.10
2013,10,24,11,11,11.20
2013,10,24,11,12,11.20
2013,10,24,11,13,11.30
2013,10,24,11,14,11.30
2013,10,24,11,15,11.40
2013,10,24,11,16,11.50
2013,10,24,11,17,11.50
2013,10,24,11,18,11.60
2013,10,24,11,19,11.60
2013,10,24,11,20,11.70
2013,10,24,11,21,11.70
2013,10,24,11,22,11.80
2013,10,24,11,23,11.80
2013,10,24,11,24,11.80
2013,10,24,11,25,11.90
2013,10,24,11,26,11.90
2013,10,24,11,27,11.80
2013,10,24,11,28,11.80
2013,10,24,11,29,11.80
2013,10,24,11,30,11.80
2013,10,24,11,31,11.90
2013,10,24,11,32,11.90
2013,10,24,11,33,11.90
2013,10,24,11,34,11.90
2013,10,24,11,35,12.00
2013,10,24,11,36,12.00
2013,10,24,11,37,12.10
2013,10,24,11,38,12.10
2013,10,24,11,39,12.20
2013,10,24,11,40,12.20
2013,10,24,11,41,12.30
2013,10,24,11,42,12.30
2013,10,24,11,43,12.40
2013,10,24,11,44,12.40
2013,10,24,11,45,12.40
2013,10,24,11,46,12.40
2013,10,24,11,47,12.50
2013,10,24,11,48,12.50
2013,10,24,11,49,12.60
2013,10,24,11,50,12.60
2013,10,24,11,51,12.60
2013,10,24,11,52,12.60
2013,10,24,11,53,12.70
2013,10,24,11,54,12.70
2013,10,24,11,55,12.70
2013,10,24,11,56,12.70
2013,10,24,11,57,12.80
2013,10,24,11,58,12.80
2013,10,24,11,59,12.80
2013,10,24,12,00,12.90
2013,10,24,12,01,12.90
2013,10,24,12,02,12.90
2013,10,24,12,03,13.00
2013,10,24,12,04,13.00
2013,10,24,12,05,13.10
2013,10,24,12,06,13.10
2013,10,24,12,07,13.10
2013,10,24,12,08,13.20
2013,10,24,12,09,13.20
2013,10,24,12,10,13.30
2013,10,24,12,11,13.30
2013,10,24,12,12,13.30
2013,10,24,12,13,13.30
2013,10,24,12,14,13.40
2013,10,24,12,15,13.40
2013,10,24,12,16,13.50
2013,10,24,12,17,13.60
2013,10,24,12,18,13.60
2013,10,24,12,19,13.70
2013,10,24,12,20,13.70
2013,10,24,12,21,13.70
2013,10,24,12,22,13.80
2013,10,24,12,23,13.80
2013,10,24,12,24,13.80
2013,10,24,12,25,13.80
2013,10,24,12,26,13.80
2013,10,24,12,27,13.80
2013,10,24,12,28,13.80
2013,10,24,12,29,13.80
2013,10,24,12,30,13.80
2013,10,24,12,31,13.80
2013,10,24,12,32,13.80
2013,10,24,12,33,13.80
2013,10,24,12,34,13.80
2013,10,24,12,35,13.80
2013,10,24,12,36,13.80
2013,10,24,12,37,13.80
2013,10,24,12,38,13.80
2013,10,24,12,39,13.80
2013,10,24,12,40,13.70
2013,10,24,12,41,13.70
2013,10,24,12,42,13.70
2013,10,24,12,43,13.70
2013,10,24,12,44,13.80
2013,10,24,12,45,13.80
2013,10,24,12,46,13.80
2013,10,24,12,47,13.80
2013,10,24,12,48,13.80
2013,10,24,12,49,13.80
2013,10,24,12,50,13.80
2013,10,24,12,51,13.80
2013,10,24,12,52,13.80
2013,10,24,12,53,13.80
2013,10,24,12,54,13.80
2013,10,24,12,55,13.90
2013,10,24,12,56,13.90
2013,10,24,12,57,13.90
2013,10,24,12,58,13.90
2013,10,24,12,59,14.00
2013,10,24,13,00,14.00
2013,10,24,13,01,14.00
2013,10,24,13,02,14.10
2013,10,24,13,03,14.10
2013,10,24,13,04,14.10
2013,10,24,13,05,14.10
2013,10,24,13,06,14.10
2013,10,24,13,07,14.10
2013,10,24,13,08,14.10
2013,10,24,13,09,14.20
2013,10,24,13,10,14.20
2013,10,24,13,11,14.20
2013,10,24,13,12,14.20
2013,10,24,13,13,14.20
2013,10,24,13,14,14.30
2013,10,24,13,15,14.30
2013,10,24,13,16,14.30
2013,10,24,13,17,14.30
2013,10,24,13,18,14.30
2013,10,24,13,19,14.30
2013,10,24,13,20,14.30
2013,10,24,13,21,14.30
2013,10,24,13,22,14.20
2013,10,24,13,23,14.20
2013,10,24,13,24,14.20
2013,10,24,13,25,14.10
2013,10,24,13,26,14.10
2013,10,24,13,27,14.00
2013,10,24,13,28,14.00
2013,10,24,13,29,14.00
2013,10,24,13,30,13.90
2013,10,24,13,31,13.90
2013,10,24,13,32,13.90
2013,10,24,13,33,13.90
2013,10,24,13,34,13.90
2013,10,24,13,35,13.90
2013,10,24,13,36,13.90
2013,10,24,13,37,13.90
2013,10,24,13,38,13.90
2013,10,24,13,39,13.90
2013,10,24,13,40,13.90
2013,10,24,13,41,13.90
2013,10,24,13,42,14.00
2013,10,24,13,43,14.00
2013,10,24,13,44,14.10
2013,10,24,13,45,14.20
2013,10,24,13,46,14.20
2013,10,24,13,47,14.20
2013,10,24,13,48,14.30
2013,10,24,13,49,14.40
2013,10,24,13,50,14.40
2013,10,24,13,51,14.40
2013,10,24,13,52,14.40
2013,10,24,13,53,14.40
2013,10,24,13,54,14.50
2013,10,24,13,55,14.50
2013,10,24,13,56,14.50
2013,10,24,13,57,14.50
2013,10,24,13,58,14.50
2013,10,24,13,59,14.50
2013,10,24,14,00,14.50
2013,10,24,14,01,14.60
2013,10,24,14,02,14.60
2013,10,24,14,03,14.60
2013,10,24,14,04,14.60
2013,10,24,14,05,14.60
2013,10,24,14,06,14.60
2013,10,24,14,07,14.70
2013,10,24,14,08,14.70
2013,10,24,14,09,14.70
2013,10,24,14,10,14.70
2013,10,24,14,11,14.70
2013,10,24,14,12,14.70
2013,10,24,14,13,14.70
2013,10,24,14,14,14.70
2013,10,24,14,15,14.80
2013,10,24,14,16,14.80
2013,10,24,14,17,14.80
2013,10,24,14,18,14.80
2013,10,24,14,19,14.80
2013,10,24,14,20,14.80
2013,10,24,14,21,14.90
2013,10,24,14,22,14.90
2013,10,24,14,23,14.90
2013,10,24,14,24,14.90
2013,10,24,14,25,14.90
2013,10,24,14,26,14.90
2013,10,24,14,27,15.00
2013,10,24,14,28,15.00
2013,10,24,14,29,15.00
2013,10,24,14,30,15.00
2013,10,24,14,31,15.10
2013,10,24,14,32,15.10
2013,10,24,14,33,15.10
2013,10,24,14,34,15.10
2013,10,24,14,35,15.20
2013,10,24,14,36,15.20
2013,10,24,14,37,15.20
2013,10,24,14,38,15.20
2013,10,24,14,39,15.20
2013,10,24,14,40,15.20
2013,10,24,14,41,15.20
2013,10,24,14,42,15.30
2013,10,24,14,43,15.30
2013,10,24,14,44,15.20
2013,10,24,14,45,15.20
2013,10,24,14,46,15.20
2013,10,24,14,47,15.20
2013,10,24,14,48,15.20
2013,10,24,14,49,15.20
2013,10,24,14,50,15.20
2013,10,24,14,51,15.20
2013,10,24,14,52,15.30
2013,10,24,14,53,15.30
2013,10,24,14,54,15.30
2013,10,24,14,55,15.30
2013,10,24,14,56,15.30
2013,10,24,14,57,15.30
2013,10,24,14,58,15.30
2013,10,24,14,59,15.30
2013,10,24,15,00,15.30
2013,10,24,15,01,15.30
2013,10,24,15,02,15.30
2013,10,24,15,03,15.30
2013,10,24,15,04,15.30
2013,10,24,15,05,15.30
2013,10,24,15,06,15.30
2013,10,24,15,07,15.30
2013,10,24,15,08,15.30
2013,10,24,15,09,15.30
2013,10,24,15,10,15.30
2013,10,24,15,11,15.30
2013,10,24,15,12,15.30
2013,10,24,15,13,15.40
2013,10,24,15,14,15.40
2013,10,24,15,15,15.40
2013,10,24,15,16,15.40
2013,10,24,15,17,15.40
2013,10,24,15,18,15.50
2013,10,24,15,19,15.50
2013,10,24,15,20,15.50
2013,10,24,15,21,15.50
2013,10,24,15,22,15.50
2013,10,24,15,23,15.50
2013,10,24,15,24,15.50
2013,10,24,15,25,15.50
2013,10,24,15,26,15.50
2013,10,24,15,27,15.40
2013,10,24,15,28,15.40
2013,10,24,15,29,15.40
2013,10,24,15,30,15.40
2013,10,24,15,31,15.40
2013,10,24,15,32,15.40
2013,10,24,15,33,15.50
2013,10,24,15,34,15.50
2013,10,24,15,35,15.50
2013,10,24,15,36,15.50
2013,10,24,15,37,15.50
2013,10,24,15,38,15.60
2013,10,24,15,39,15.60
2013,10,24,15,40,15.60
2013,10,24,15,41,15.50
2013,10,24,15,42,15.50
2013,10,24,15,43,15.50
2013,10,24,15,44,15.40
2013,10,24,15,45,15.40
2013,10,24,15,46,15.40
2013,10,24,15,47,15.40
2013,10,24,15,48,15.30
2013,10,24,15,49,15.30
2013,10,24,15,50,15.30
2013,10,24,15,51,15.30
2013,10,24,15,52,15.30
2013,10,24,15,53,15.30
2013,10,24,15,54,15.30
2013,10,24,15,55,15.30
2013,10,24,15,56,15.30
2013,10,24,15,57,15.30
2013,10,24,15,58,15.30
2013,10,24,15,59,15.30
2013,10,24,16,00,15.30
2013,10,24,16,01,15.30
2013,10,24,16,02,15.30
2013,10,24,16,03,15.30
2013,10,24,16,04,15.30
2013,10,24,16,05,15.30
2013,10,24,16,06,15.30
2013,10,24,16,07,15.30
2013,10,24,16,08,15.30
2013,10,24,16,09,15.30
2013,10,24,16,10,15.30
2013,10,24,16,11,15.30
2013,10,24,16,12,15.30
2013,10,24,16,13,15.30
2013,10,24,16,14,15.20
2013,10,24,16,15,15.20
2013,10,24,16,16,15.20
2013,10,24,16,17,15.20
2013,10,24,16,18,15.20
2013,10,24,16,19,15.20
2013,10,24,16,20,15.20
2013,10,24,16,21,15.20
2013,10,24,16,22,15.20
2013,10,24,16,23,15.20
2013,10,24,16,24,15.20
2013,10,24,16,25,15.20
2013,10,24,16,26,15.20
2013,10,24,16,27,15.20
2013,10,24,16,28,15.20
2013,10,24,16,29,15.20
2013,10,24,16,30,15.20
2013,10,24,16,31,15.20
2013,10,24,16,32,15.20
2013,10,24,16,33,15.20
2013,10,24,16,34,15.10
2013,10,24,16,35,15.10
2013,10,24,16,36,15.10
2013,10,24,16,37,15.10
2013,10,24,16,38,15.10
2013,10,24,16,39,15.10
2013,10,24,16,40,15.10
2013,10,24,16,41,15.00
2013,10,24,16,42,15.00
2013,10,24,16,43,15.00
2013,10,24,16,44,15.00
2013,10,24,16,45,14.90
2013,10,24,16,46,14.90
2013,10,24,16,47,14.90
2013,10,24,16,48,14.80
2013,10,24,16,49,14.80
2013,10,24,16,50,14.80
2013,10,24,16,51,14.80
2013,10,24,16,52,14.70
2013,10,24,16,53,14.70
2013,10,24,16,54,14.70
2013,10,24,16,55,14.70
2013,10,24,16,56,14.70
2013,10,24,16,57,14.70
2013,10,24,16,58,14.60
2013,10,24,16,59,14.60
2013,10,24,17,00,14.50
2013,10,24,17,01,14.50
2013,10,24,17,02,14.40
2013,10,24,17,03,14.30
2013,10,24,17,04,14.20
2013,10,24,17,05,14.20
2013,10,24,17,06,14.10
2013,10,24,17,07,14.10
2013,10,24,17,08,14.00
2013,10,24,17,09,14.00
2013,10,24,17,10,13.90
2013,10,24,17,11,13.90
2013,10,24,17,12,13.90
2013,10,24,17,13,13.80
2013,10,24,17,14,13.80
2013,10,24,17,15,13.80
2013,10,24,17,16,13.70
2013,10,24,17,17,13.70
2013,10,24,17,18,13.70
2013,10,24,17,19,13.70
2013,10,24,17,20,13.60
2013,10,24,17,21,13.60
2013,10,24,17,22,13.50
2013,10,24,17,23,13.50
2013,10,24,17,24,13.40
2013,10,24,17,25,13.40
2013,10,24,17,26,13.30
2013,10,24,17,27,13.20
2013,10,24,17,28,13.20
2013,10,24,17,29,13.10
2013,10,24,17,30,13.00
2013,10,24,17,31,13.00
2013,10,24,17,32,12.90
2013,10,24,17,33,12.90
2013,10,24,17,34,12.80
2013,10,24,17,35,12.70
2013,10,24,17,36,12.70
2013,10,24,17,37,12.60
2013,10,24,17,38,12.60
2013,10,24,17,39,12.60
2013,10,24,17,40,12.50
2013,10,24,17,41,12.50
2013,10,24,17,42,12.40
2013,10,24,17,43,12.30
2013,10,24,17,44,12.30
2013,10,24,17,45,12.20
2013,10,24,17,46,12.20
2013,10,24,17,47,12.10